This is the latest recevied weather packets stored in our database for station/object N4NVD-13. If no packets are shown the sender has not sent any weather packets the latest 1 day(s).
| Time | Temp. | Humidity | Pressure | Rain* | Wind** | Luminosity | Snow |
|---|---|---|---|---|---|---|---|
| 1778106993 | 20.56° C | 83% | 1010.1 hPa | 0 mm | - | 126 W/m² | - |
| 1778106689 | 21.11° C | 83% | 1010.3 hPa | 0 mm | - | 124 W/m² | - |
| 1778106386 | 21.11° C | 82% | 1010.4 hPa | 0 mm | - | 171 W/m² | - |
| 1778104262 | 21.11° C | 84% | 1010.3 hPa | 0 mm | - | 139 W/m² | - |
| 1778102443 | 20.56° C | 85% | 1009.9 hPa | 0 mm | - | 106 W/m² | - |
| 1778101533 | 22.22° C | 84% | 1009.9 hPa | 0 mm | - | 170 W/m² | - |
| 1778100320 | 23.33° C | 85% | 1010 hPa | 0 mm | - | 89 W/m² | - |
| 1778099411 | 23.89° C | 85% | 1009.4 hPa | 0 mm | - | 103 W/m² | - |
| 1778098199 | 26.11° C | 84% | 1009.4 hPa | 0 mm | - | 196 W/m² | - |
| 1778097895 | 26.67° C | 84% | 1009.4 hPa | 0 mm | - | 415 W/m² | - |
| 1778097289 | 26.11° C | 84% | 1009.5 hPa | 0 mm | - | 360 W/m² | - |
| 1778096379 | 26.11° C | 83% | 1009.6 hPa | 0 mm | - | 653 W/m² | - |
| 1778094251 | 23.89° C | 86% | 1009.5 hPa | 0 mm | - | 648 W/m² | - |
| 1778093645 | 23.33° C | 86% | 1009.7 hPa | 0 mm | - | 432 W/m² | - |
| 1778093039 | 22.22° C | 89% | 1009.6 hPa | 0 mm | - | 362 W/m² | - |
| 1778092736 | 22.78° C | 86% | 1009.7 hPa | 0 mm | - | 393 W/m² | - |
| 1778092431 | 21.67° C | 91% | 1009.6 hPa | 0 mm | - | 689 W/m² | - |
| 1778092129 | 21.67° C | 89% | 1009.6 hPa | 0 mm | - | 697 W/m² | - |
| 1778091826 | 20.56° C | 90% | 1009.8 hPa | 0 mm | - | 432 W/m² | - |
| 1778091523 | 20.56° C | 90% | 1009.7 hPa | 0 mm | - | 712 W/m² | - |
| 1778090918 | 20° C | 92% | 1010.1 hPa | 0 mm | - | 708 W/m² | - |
| 1778090614 | 20° C | 91% | 1010.3 hPa | 0 mm | - | 548 W/m² | - |
| 1778088796 | 18.89° C | 94% | 1010.5 hPa | 0 mm | - | 634 W/m² | - |
| 1778087584 | 17.78° C | 98% | 1011.5 hPa | 0 mm | - | 125 W/m² | - |
| 1778087282 | 18.33° C | 97% | 1011.5 hPa | 0 mm | - | 110 W/m² | - |
* Rain latest hour (hover to see other rain measurements)
** Current wind speed in m/s (hover to see current wind gust speed)